[[{"header":{"parameterUnit":"m.s-1","parameterCategory":1,"la1":30.2991,"la2":30.254,"lo1":-89.0895,"lo2":-89.0444,"dy":0.0017,"dx":0.0017,"nx":28,"ny":28,"refTime":"2024-03-26T09:00:00:Z","depth":0,"parameterNumber":2,"parameterNumberName":"U-component_of_WINDS"},"data":[0,0,0,0,0,0,0,0,0,0,0,0,0,0,0,0,0,0,0,0,0,0,0,0,0,0,0,0,0,0,0,0,0,0,0,0,0,0,0,0,0,0,0,0,0,0,0,0,0,0,0,0,0,0,0,0,0,0,-1.2735,-1.2734,0,-1.2701,-1.27,-1.27,-1.2685,-1.2685,-1.2685,-1.2685,-1.2651,-1.265,-1.2649,0,0,0,0,0,0,0,0,0,0,0,0,0,-1.2788,-1.2788,-1.2735,-1.2734,-1.2734,-1.2701,-1.27,-1.27,-1.2685,-1.2685,-1.2685,-1.2685,-1.2652,-1.265,-1.2649,0,0,0,0,0,0,0,0,0,0,0,0,0,-1.2761,-1.2787,-1.2735,-1.2723,-1.2721,-1.2701,-1.27,-1.27,-1.2685,-1.2685,-1.2685,-1.2686,-1.2652,-1.265,-1.2649,-1.2638,0,0,-1.2645,-1.2644,0,0,0,0,0,0,0,0,-1.2762,-1.2759,-1.2725,-1.2724,-1.2722,-1.2697,-1.2706,-1.2679,-1.2685,-1.2699,-1.2685,-1.2686,-1.2667,-1.2664,-1.2657,-1.2637,-1.2635,-1.2644,-1.2644,-1.2643,-1.2643,0,0,0,0,0,0,0,-1.2764,-1.276,-1.2721,-1.2725,-1.2723,-1.2719,-1.2715,-1.2701,-1.2683,-1.2698,-1.2697,-1.2693,-1.2666,-1.2659,-1.2656,-1.2635,-1.2645,-1.2643,-1.2642,-1.2642,-1.2604,-1.2604,0,0,0,0,0,0,-1.2768,-1.2762,-1.2722,-1.272,-1.2743,-1.2718,-1.2714,-1.2705,-1.2683,-1.2679,-1.2693,-1.2692,-1.2661,-1.2658,-1.2655,-1.2641,-1.2643,-1.2642,-1.2641,-1.2604,-1.2604,-1.2604,0,0,0,0,0,0,-1.2769,-1.2765,-1.2724,-1.2741,-1.2735,-1.2717,-1.2707,-1.2704,-1.2697,-1.2679,-1.2676,-1.2689,-1.2661,-1.2657,-1.2642,-1.264,-1.2641,-1.264,-1.2604,-1.2604,-1.2604,-1.2613,0,0,0,0,0,0,-1.2771,-1.2765,-1.2761,-1.2741,-1.2734,-1.2712,-1.2707,-1.2704,-1.2695,-1.2694,-1.2674,-1.2671,-1.2661,-1.2645,-1.2641,-1.2638,-1.2638,-1.2604,-1.2604,-1.2604,-1.2613,-1.2613,-1.2613,0,0,0,0,0,-1.2773,-1.2765,-1.2761,-1.2756,-1.2728,-1.2711,-1.2708,-1.2696,-1.2695,-1.269,-1.2678,-1.2672,-1.2641,-1.2643,-1.2639,-1.2635,-1.2604,-1.2604,-1.2604,-1.2613,-1.2613,-1.2613,0,0,0,0,0,0,-1.2785,-1.2762,-1.2757,-1.2742,-1.2729,-1.2709,-1.2703,-1.2696,-1.2683,-1.2683,-1.2668,-1.2664,-1.2651,-1.2642,-1.2645,-1.2624,-1.2622,-1.2621,-1.263,-1.263,-1.2631,-1.2633,-1.2637,0,0,0,0,0,-1.2786,-1.2774,-1.2755,-1.2743,-1.2737,-1.2721,-1.2713,-1.2705,-1.2691,-1.2685,-1.2672,-1.2659,-1.2646,-1.2638,-1.2625,-1.2611,-1.2607,-1.2607,-1.2607,-1.2607,-1.2606,-1.2599,-1.2598,-1.2602,-1.2602,-1.2602,0,0,-1.2788,-1.2774,-1.2767,-1.2746,-1.2734,-1.2722,-1.2716,-1.2704,-1.2695,-1.2683,-1.2668,-1.2659,-1.2643,-1.2629,-1.2622,-1.2621,-1.2604,-1.2607,-1.2607,-1.2606,-1.2598,-1.2598,-1.2598,-1.2602,-1.2602,-1.2602,0,0,-1.2785,-1.2773,-1.2763,-1.2752,-1.2735,-1.2724,-1.2722,-1.2703,-1.2695,-1.2681,-1.2671,-1.2661,-1.2639,-1.2628,-1.2619,-1.2613,-1.2607,-1.2609,-1.261,-1.2603,-1.2603,-1.2602,-1.26,-1.26,-1.2608,-1.2608,-1.2608,0,-1.279,-1.2771,-1.2758,-1.2746,-1.2737,-1.2726,-1.2715,-1.2705,-1.2685,-1.2679,-1.2677,-1.265,-1.2638,-1.2621,-1.262,-1.2613,-1.261,-1.2611,-1.2604,-1.2603,-1.2603,-1.2601,-1.26,-1.2609,-1.2609,-1.2609,-1.2609,0,-1.2778,-1.2765,-1.2759,-1.2739,-1.2729,-1.2718,-1.2704,-1.2695,-1.2688,-1.2678,-1.2663,-1.2649,-1.2633,-1.2628,-1.2621,-1.261,-1.261,-1.2607,-1.2604,-1.2603,-1.2601,-1.26,-1.2609,-1.2609,-1.2609,-1.2609,0,0,-1.2782,-1.2755,-1.2753,-1.2744,-1.2725,-1.2715,-1.2703,-1.2687,-1.268,-1.2667,-1.2657,-1.2638,-1.2635,-1.2626,-1.2617,-1.2611,-1.2607,-1.2608,-1.2607,-1.2608,-1.2594,-1.2597,-1.2596,-1.2602,-1.2602,-1.2602,-1.2596,0,-1.2777,-1.2755,-1.2743,-1.2727,-1.2715,-1.2704,-1.2694,-1.2681,-1.2671,-1.266,-1.2649,-1.2636,-1.2633,-1.2627,-1.262,-1.2609,-1.2604,-1.2609,-1.2593,-1.2593,-1.2597,-1.2595,-1.2598,-1.2593,-1.2595,-1.2595,-1.2594,0,-1.2767,-1.2754,-1.2736,-1.2718,-1.2713,-1.2704,-1.2688,-1.2678,-1.2663,-1.2656,-1.2646,-1.2637,-1.2625,-1.2624,-1.2607,-1.261,-1.2603,-1.2597,-1.2596,-1.2594,-1.2593,-1.2593,-1.2591,-1.259,-1.2593,-1.2593,-1.2593,0,-1.2772,-1.275,-1.2736,-1.2729,-1.2707,-1.2701,-1.2692,-1.2677,-1.2669,-1.2655,-1.265,-1.2635,-1.2627,-1.2616,-1.2604,-1.2605,-1.2588,-1.2586,-1.2583,-1.2583,-1.258,-1.258,-1.2576,-1.2575,-1.2575,-1.2575,-1.2575,0,-1.2768,-1.2757,-1.2738,-1.273,-1.2718,-1.2704,-1.2693,-1.2683,-1.267,-1.266,-1.265,-1.264,-1.2625,-1.2614,-1.2604,-1.2592,-1.2588,-1.2583,-1.258,-1.2583,-1.2584,-1.2579,-1.2579,-1.2575,-1.2575,-1.2575,-1.2575,0,-1.2771,-1.2758,-1.2742,-1.2723,-1.2718,-1.271,-1.2694,-1.2685,-1.2675,-1.2662,-1.2659,-1.2643,-1.2629,-1.2616,-1.2598,-1.2591,-1.2579,-1.2576,-1.2584,-1.2582,-1.2579,-1.258,-1.2572,-1.257,-1.257,-1.257,-1.257,0,-1.2769,-1.2761,-1.2741,-1.2733,-1.2724,-1.2712,-1.2703,-1.2689,-1.268,-1.2663,-1.2657,-1.2642,-1.263,-1.2609,-1.2596,-1.2582,-1.2578,-1.2576,-1.2576,-1.258,-1.2578,-1.2579,-1.2578,-1.2577,-1.2577,-1.2577,-1.2577,0,-1.2767,-1.276,-1.2748,-1.2733,-1.2723,-1.271,-1.2698,-1.2692,-1.2676,-1.2667,-1.2652,-1.2643,-1.2624,-1.261,-1.2595,-1.2585,-1.2579,-1.2577,-1.2575,-1.2579,-1.2584,-1.2581,-1.2584,-1.2577,-1.2577,-1.2577,-1.2577,-1.2577,-1.2767,-1.2759,-1.2744,-1.273,-1.2719,-1.2708,-1.2699,-1.2688,-1.2676,-1.2659,-1.2652,-1.2638,-1.2623,-1.2602,-1.2593,-1.2581,-1.258,-1.2578,-1.2577,-1.2577,-1.2577,-1.2585,-1.2579,-1.2579,-1.2579,-1.2579,-1.2578,0,-1.2764,-1.2754,-1.2742,-1.2724,-1.2714,-1.2708,-1.2693,-1.2685,-1.2672,-1.2659,-1.2648,-1.2631,-1.2618,-1.2603,-1.2589,-1.2583,-1.2579,-1.2579,-1.258,-1.2578,-1.258,-1.2582,-1.2582,-1.2582,-1.2582,-1.2582,-1.2582,-1.2582,-1.2762,-1.2748,-1.274,-1.2721,-1.2711,-1.2697,-1.2689,-1.2679,-1.2668,-1.265,-1.2639,-1.263,-1.2616,-1.2601,-1.2588,-1.2584,-1.2579,-1.258,-1.2576,-1.2578,-1.2578,-1.2577,-1.258,-1.2579,-1.2579,-1.2575,-1.2575,-1.2575]},{"header":{"parameterUnit":"m.s-1","parameterCategory":1,"la1":30.2991,"la2":30.254,"lo1":-89.0895,"lo2":-89.0444,"dy":0.0017,"dx":0.0017,"nx":28,"ny":28,"refTime":"2024-03-26T09:00:00:Z","depth":0,"parameterNumber":3,"parameterNumberName":"V-component_of_WINDS"},"data":[0,0,0,0,0,0,0,0,0,0,0,0,0,0,0,0,0,0,0,0,0,0,0,0,0,0,0,0,0,0,0,0,0,0,0,0,0,0,0,0,0,0,0,0,0,0,0,0,0,0,0,0,0,0,0,0,0,0,-2.0532,-2.0532,0,-2.0557,-2.0558,-2.0558,-2.0567,-2.0567,-2.0567,-2.0567,-2.0589,-2.059,-2.059,0,0,0,0,0,0,0,0,0,0,0,0,0,-2.0489,-2.0489,-2.0532,-2.0532,-2.0533,-2.0557,-2.0558,-2.0558,-2.0567,-2.0567,-2.0567,-2.0567,-2.0589,-2.059,-2.059,0,0,0,0,0,0,0,0,0,0,0,0,0,-2.051,-2.049,-2.0532,-2.054,-2.0541,-2.0557,-2.0558,-2.0558,-2.0567,-2.0567,-2.0567,-2.0567,-2.0588,-2.0589,-2.059,-2.0599,0,0,-2.0593,-2.0594,0,0,0,0,0,0,0,0,-2.0509,-2.0511,-2.0539,-2.054,-2.0541,-2.0559,-2.055,-2.0572,-2.0567,-2.0557,-2.0567,-2.0567,-2.0579,-2.0581,-2.0585,-2.06,-2.0601,-2.0594,-2.0594,-2.0595,-2.0595,0,0,0,0,0,0,0,-2.0507,-2.051,-2.0542,-2.0539,-2.054,-2.0542,-2.0545,-2.0555,-2.0568,-2.0558,-2.0559,-2.0562,-2.0579,-2.0584,-2.0586,-2.0601,-2.0594,-2.0594,-2.0595,-2.0595,-2.0625,-2.0625,0,0,0,0,0,0,-2.0505,-2.0509,-2.0541,-2.0543,-2.0524,-2.0543,-2.0546,-2.0553,-2.0568,-2.057,-2.0562,-2.0562,-2.0583,-2.0585,-2.0587,-2.0599,-2.0595,-2.0596,-2.0596,-2.0625,-2.0625,-2.0625,0,0,0,0,0,0,-2.0504,-2.0508,-2.054,-2.0526,-2.053,-2.0543,-2.0552,-2.0554,-2.0559,-2.0571,-2.0573,-2.0565,-2.0583,-2.0585,-2.0596,-2.0599,-2.0596,-2.0597,-2.0624,-2.0625,-2.0625,-2.0622,0,0,0,0,0,0,-2.0503,-2.0507,-2.0511,-2.0526,-2.0531,-2.055,-2.0552,-2.0554,-2.0561,-2.0562,-2.0574,-2.0576,-2.0583,-2.0595,-2.0597,-2.0601,-2.0598,-2.0624,-2.0624,-2.0625,-2.0621,-2.0622,-2.0622,0,0,0,0,0,-2.0501,-2.0508,-2.0511,-2.0515,-2.0537,-2.055,-2.0553,-2.0561,-2.0561,-2.0565,-2.0573,-2.0576,-2.0599,-2.0596,-2.0599,-2.0603,-2.0624,-2.0624,-2.0625,-2.0621,-2.0622,-2.0622,0,0,0,0,0,0,-2.0492,-2.051,-2.0514,-2.0527,-2.0537,-2.0552,-2.0557,-2.0561,-2.0571,-2.0571,-2.058,-2.0582,-2.0593,-2.0598,-2.0595,-2.0612,-2.0611,-2.0612,-2.0608,-2.0608,-2.0608,-2.0607,-2.0599,0,0,0,0,0,-2.0491,-2.0502,-2.0517,-2.0527,-2.0532,-2.0544,-2.055,-2.0555,-2.0566,-2.057,-2.0579,-2.0588,-2.0597,-2.0603,-2.0612,-2.0622,-2.0625,-2.0626,-2.0626,-2.0627,-2.0627,-2.0634,-2.0635,-2.0626,-2.0626,-2.0626,0,0,-2.049,-2.0502,-2.0508,-2.0525,-2.0534,-2.0544,-2.0547,-2.0557,-2.0564,-2.0571,-2.0583,-2.0589,-2.06,-2.0611,-2.0616,-2.0616,-2.063,-2.0627,-2.0627,-2.0628,-2.0634,-2.0635,-2.0636,-2.0627,-2.0626,-2.0626,0,0,-2.0494,-2.0504,-2.0513,-2.0522,-2.0536,-2.0544,-2.0546,-2.056,-2.0566,-2.0577,-2.0583,-2.0591,-2.0606,-2.0614,-2.062,-2.0628,-2.0631,-2.063,-2.0631,-2.0638,-2.0638,-2.0639,-2.0642,-2.0643,-2.0631,-2.0631,-2.0631,0,-2.049,-2.0507,-2.0517,-2.0528,-2.0535,-2.0543,-2.0553,-2.056,-2.0576,-2.058,-2.058,-2.0601,-2.0609,-2.0622,-2.0624,-2.0628,-2.0631,-2.0629,-2.0637,-2.0638,-2.0639,-2.0642,-2.0643,-2.0631,-2.0631,-2.0631,-2.0631,0,-2.0502,-2.0514,-2.052,-2.0536,-2.0544,-2.0554,-2.0565,-2.0572,-2.0577,-2.0584,-2.0596,-2.0606,-2.0618,-2.0621,-2.0625,-2.0635,-2.0635,-2.0636,-2.0636,-2.064,-2.0643,-2.0644,-2.063,-2.063,-2.0631,-2.0631,0,0,-2.05,-2.0524,-2.0526,-2.0534,-2.055,-2.0558,-2.0568,-2.0581,-2.0587,-2.0597,-2.0606,-2.0619,-2.0621,-2.0627,-2.0633,-2.0638,-2.0644,-2.0639,-2.0639,-2.064,-2.0656,-2.0655,-2.0656,-2.0646,-2.0646,-2.0647,-2.0655,0,-2.0506,-2.0527,-2.0536,-2.0552,-2.0563,-2.057,-2.0579,-2.0589,-2.0597,-2.0606,-2.0613,-2.0623,-2.0624,-2.0629,-2.0634,-2.0642,-2.0647,-2.0641,-2.0654,-2.0654,-2.0652,-2.0658,-2.0657,-2.0665,-2.0656,-2.0656,-2.0657,0,-2.0516,-2.0529,-2.0546,-2.0562,-2.0566,-2.0574,-2.0587,-2.0596,-2.0608,-2.0613,-2.0621,-2.0626,-2.0636,-2.0635,-2.0649,-2.0645,-2.065,-2.0655,-2.0655,-2.0657,-2.0656,-2.066,-2.0667,-2.0669,-2.0658,-2.0658,-2.0658,0,-2.0514,-2.0534,-2.0548,-2.0554,-2.0573,-2.0578,-2.0586,-2.0598,-2.0605,-2.0616,-2.0621,-2.0632,-2.0638,-2.0646,-2.0654,-2.0652,-2.0667,-2.0667,-2.0672,-2.0671,-2.0675,-2.0674,-2.0683,-2.0677,-2.0677,-2.0677,-2.0677,0,-2.052,-2.053,-2.0547,-2.0555,-2.0567,-2.0578,-2.0588,-2.0596,-2.0607,-2.0616,-2.0623,-2.0631,-2.0641,-2.065,-2.0656,-2.0667,-2.067,-2.0674,-2.0675,-2.0673,-2.0673,-2.0677,-2.0677,-2.0677,-2.0677,-2.0677,-2.0677,0,-2.052,-2.0531,-2.0546,-2.0564,-2.0568,-2.0576,-2.059,-2.0598,-2.0606,-2.0617,-2.062,-2.0632,-2.0644,-2.0653,-2.0666,-2.0671,-2.0682,-2.0684,-2.0679,-2.068,-2.0685,-2.0684,-2.0697,-2.0699,-2.0691,-2.0691,-2.0691,0,-2.0523,-2.0531,-2.055,-2.0558,-2.0566,-2.0577,-2.0586,-2.0596,-2.0604,-2.0619,-2.0625,-2.0637,-2.0647,-2.0665,-2.0674,-2.0685,-2.0687,-2.0691,-2.0688,-2.0687,-2.0688,-2.0687,-2.0689,-2.0691,-2.0691,-2.0691,-2.0691,0,-2.0528,-2.0534,-2.0546,-2.0561,-2.0571,-2.0582,-2.0594,-2.0599,-2.0612,-2.062,-2.0633,-2.0641,-2.0656,-2.0668,-2.068,-2.0687,-2.0691,-2.0692,-2.0693,-2.0692,-2.0689,-2.0692,-2.0681,-2.0691,-2.0691,-2.0691,-2.0691,-2.0691,-2.053,-2.0538,-2.0553,-2.0567,-2.0577,-2.0588,-2.0597,-2.0606,-2.0618,-2.0632,-2.0637,-2.065,-2.0662,-2.0679,-2.0686,-2.0695,-2.0696,-2.0698,-2.0699,-2.0699,-2.07,-2.0687,-2.0697,-2.0697,-2.0697,-2.0697,-2.0697,0,-2.0536,-2.0546,-2.0559,-2.0576,-2.0587,-2.0591,-2.0604,-2.0612,-2.0624,-2.0636,-2.0646,-2.0661,-2.0673,-2.0683,-2.0695,-2.0701,-2.0703,-2.0704,-2.0704,-2.0705,-2.0698,-2.0696,-2.0702,-2.0702,-2.0702,-2.0702,-2.0702,-2.0702,-2.054,-2.0555,-2.0563,-2.0582,-2.0592,-2.0606,-2.0614,-2.0624,-2.0633,-2.065,-2.066,-2.0668,-2.0678,-2.0692,-2.0702,-2.0705,-2.0709,-2.071,-2.0713,-2.0706,-2.0706,-2.0705,-2.0703,-2.071,-2.071,-2.0719,-2.0719,-2.0719]}]]